This is the latest recevied weather packets stored in our database for station/object AE0NK. If no packets are shown the sender has not sent any weather packets the latest 10 day(s).
| Time | Temp. | Humidity | Pressure | Rain* | Wind** | Luminosity | Snow |
|---|---|---|---|---|---|---|---|
| 1777762699 | 15.56° C | 29% | 1016.7 hPa | 0 mm | - | 330 W/m² | - |
| 1777762396 | 15.56° C | 29% | 1016.9 hPa | 0 mm | - | 195 W/m² | - |
| 1777762095 | 15.56° C | 29% | 1017 hPa | 0 mm | - | 272 W/m² | - |
| 1777761793 | 15.56° C | 29% | 1016.9 hPa | 0 mm | - | 323 W/m² | - |
| 1777761492 | 15.56° C | 28% | 1016.9 hPa | 0 mm | - | 128 W/m² | - |
| 1777761210 | 15.56° C | 28% | 1016.9 hPa | 0 mm | - | 195 W/m² | - |
| 1777760910 | 15.56° C | 28% | 1017.1 hPa | 0 mm | - | 179 W/m² | - |
| 1777760609 | 15.56° C | 27% | 1017.1 hPa | 0 mm | - | 160 W/m² | - |
| 1777760306 | 15.56° C | 29% | 1017.1 hPa | 0 mm | - | 155 W/m² | - |
| 1777760004 | 15.56° C | 29% | 1017.2 hPa | 0 mm | - | 476 W/m² | - |
| 1777759703 | 15.56° C | 27% | 1017.1 hPa | 0 mm | - | 213 W/m² | - |
| 1777759401 | 15.56° C | 29% | 1017.1 hPa | 0 mm | - | 471 W/m² | - |
| 1777759097 | 15.56° C | 28% | 1017.3 hPa | 0 mm | - | 283 W/m² | - |
| 1777758795 | 15° C | 27% | 1017.3 hPa | 0 mm | - | 533 W/m² | - |
| 1777758494 | 16.11° C | 27% | 1017.4 hPa | 0 mm | - | 554 W/m² | - |
| 1777758192 | 16.11° C | 29% | 1017.4 hPa | 0 mm | - | 570 W/m² | - |
| 1777757911 | 16.11° C | 28% | 1017.6 hPa | 0 mm | - | 584 W/m² | - |
| 1777757609 | 16.11° C | 28% | 1017.5 hPa | 0 mm | - | 596 W/m² | - |
| 1777757306 | 15.56° C | 28% | 1017.6 hPa | 0 mm | - | 615 W/m² | - |
| 1777757003 | 15.56° C | 32% | 1017.6 hPa | 0 mm | - | 626 W/m² | - |
| 1777756701 | 15.56° C | 30% | 1017.7 hPa | 0 mm | - | 638 W/m² | - |
| 1777756399 | 15.56° C | 27% | 1017.7 hPa | 0 mm | - | 645 W/m² | - |
| 1777756097 | 15.56° C | 28% | 1017.7 hPa | 0 mm | - | 661 W/m² | - |
| 1777755797 | 15.56° C | 29% | 1017.9 hPa | 0 mm | - | 675 W/m² | - |
| 1777755493 | 15.56° C | 30% | 1017.8 hPa | 0 mm | - | 687 W/m² | - |
* Rain latest hour (hover to see other rain measurements)
** Current wind speed in m/s (hover to see current wind gust speed)